{"data":{"norad_id":61193,"epoch":"2026-09-22T20:34:19.227072Z","epoch_age_seconds":90975,"freshness":"FRESH","line1":"1 61193U 24169E   26265.85716698  .00002685  00000+0  17146-3 0  9995","line2":"2 61193  97.5551 354.0494 0011983 320.1934  39.8414 15.09462423110565","mean_motion":15.09462423,"eccentricity":0.0011983,"inclination_deg":97.5551,"raan_deg":354.0494,"arg_perigee_deg":320.1934,"mean_anomaly_deg":39.8414,"bstar":0.00017146,"rev_number":11056,"period_min":95.398201244258,"perigee_km":529.55412753906,"apogee_km":546.12896171911,"semimajor_km":6915.9785446291,"source":"CELESTRAK","updated_at":"2026-09-23T09:00:20.813389Z"}}